Погода в Тутауле

Россия / Амурская область     55°01′23″N   127°27′33″E
темп.,
°C
ветер,
м/с
пор.,
м/с
влажн.,
%
обл.,
%
осадки,
мм/ч
давл.,
гПа
погр.,
м
24 января, пн
пн2400:00−25ссз229611 0.0 103131
03:00−26ссз22975 0.0 103125
06:00−27сз21985 0.0 103023
09:00−27ссз22975 0.0 102928
12:00−18сз23785 0.0 1027163
15:00−15зсз13795 0.0 1025197
18:00−22ссз11985 0.0 10279
21:00−24ссз221005 0.0 102813
25 января, вт
вт2500:00−26ссз21995 0.0 102813
03:00−27ссз21985 0.0 102812
06:00−27ссз21985 0.0 102812
09:00−27ссз21985 0.0 102815
12:00−18зсз12775 0.0 1025158
15:00−16зсз12775 0.0 1024175
18:00−23сз11985 0.0 10259
21:00−25ссз21995 0.0 102612
26 января, ср
ср2600:00−25ссз2210040 0.0 102615
03:00−26сз229911 0.0 102725
06:00−26сз22985 0.0 102733
09:00−26сз23975 0.0 102846
12:00−18сз24751 0.0 1026184
15:00−16сз36750 0.0 1025358
18:00−24сз22965 0.0 102815
21:00−26сз22968 0.0 103030
27 января, чт
чт2700:00−27сз2295100 0.0 103036
03:00−28сз229598 0.0 103136
06:00−29сз22955 0.0 103036
09:00−28сз2393100 0.0 103055
12:00−21сз2575100 0.0 1026225
15:00−17сз41176100 0.0 1024525
18:00−17сз51266100 0.0 1023650
21:00−20ссз39748 0.0 1024225
28 января, пт
пт2800:00−27ссз22945 0.0 102629
03:00−28ссз22945 0.0 102632
06:00−29ссз22965 0.0 102635
09:00−29ссз23955 0.0 102645
12:00−21ссз367399 0.0 1024248
15:00−19ссз411685 0.0 1022704
18:00−24сз2488100 0.0 102379
21:00−26ссз2492100 0.0 102359